User: anonymous   Login
Location: *
(50.3194°N, 7.1067°E)
Time: 07:47:42
(UTC+00:00)
Language:

Cosmos 1420 Rocket - Orbit

View from above orbital plane
View from above orbital plane
View from above satellite
View from above satellite

Ground track
Ground track

The orbit data is extracted from the following two-line orbital elements,

1 13649U 82109B   19316.91256569 +.00000068 +00000-0 +31825-4 0  9993
2 13649 073.9998 192.4872 0017907 146.0465 342.7634 14.37155255937571
Epoch (UTC): 12 November 2019 21:54:05
Eccentricity: 0.0017907
inclination: 73.9998°
perigee height: 755 km
apogee height: 781 km
right ascension of ascending node: 192.4872°
argument of perigee: 146.0465°
revolutions per day: 14.37155255
mean anomaly at epoch: 342.7634°
orbit number at epoch: 93757

The dashed part of the orbit path shows where the satellite is in the earth's shadow,  

DLR